Time,TemperatureF,DewpointF,PressureIn,WindDirection,WindDirectionDegrees,WindSpeedMPH,WindSpeedGustMPH,Humidity,HourlyPrecipIn,Conditions,Clouds,dailyrainin,SoftwareType,DateUTC
2013-01-07 00:01:00,27.6,20.7,30.27,SSE,153,0.0,4.0,75,0.00,,---,0.00,VWS V14.01,2013-01-07 06:01:00,
2013-01-07 00:11:00,27.8,20.9,30.27,SSE,153,1.0,5.0,75,0.00,,---,0.00,VWS V14.01,2013-01-07 06:11:00,
2013-01-07 00:16:00,27.8,20.9,30.26,SSE,153,1.0,5.0,75,0.00,,---,0.00,VWS V14.01,2013-01-07 06:16:00,
2013-01-07 00:21:00,27.8,20.9,30.26,SSE,155,4.0,6.0,75,0.00,,---,0.00,VWS V14.01,2013-01-07 06:21:00,
2013-01-07 00:26:00,27.8,21.2,30.26,SSE,159,2.0,7.0,76,0.00,,---,0.00,VWS V14.01,2013-01-07 06:26:00,
2013-01-07 00:31:00,27.8,21.2,30.26,SSE,159,5.0,7.0,76,0.00,,---,0.00,VWS V14.01,2013-01-07 06:31:00,
2013-01-07 00:36:00,27.8,21.2,30.26,SSE,159,2.0,5.0,76,0.00,,---,0.00,VWS V14.01,2013-01-07 06:36:00,
2013-01-07 00:46:00,27.8,21.2,30.26,SSE,159,1.0,6.0,76,0.00,,---,0.00,VWS V14.01,2013-01-07 06:46:00,
2013-01-07 00:51:00,27.7,21.1,30.26,SSE,159,1.0,5.0,76,0.00,,---,0.00,VWS V14.01,2013-01-07 06:51:00,
2013-01-07 00:56:00,27.8,21.2,30.26,SSE,162,2.0,6.0,76,0.00,,---,0.00,VWS V14.01,2013-01-07 06:56:00,
2013-01-07 01:01:00,28.0,21.4,30.26,South,180,6.0,8.0,76,0.00,,---,0.00,VWS V14.01,2013-01-07 07:01:00,
2013-01-07 01:11:00,28.8,21.9,30.26,SSE,163,4.0,6.0,75,0.00,,---,0.00,VWS V14.01,2013-01-07 07:11:00,
2013-01-07 01:16:00,28.8,21.9,30.25,SSE,167,4.0,6.0,75,0.00,,---,0.00,VWS V14.01,2013-01-07 07:16:00,
2013-01-07 01:21:00,28.7,21.8,30.25,South,173,5.0,6.0,75,0.00,,---,0.00,VWS V14.01,2013-01-07 07:21:00,
2013-01-07 01:26:00,28.7,21.8,30.25,South,171,2.0,8.0,75,0.00,,---,0.00,VWS V14.01,2013-01-07 07:26:00,
2013-01-07 01:36:00,29.0,21.8,30.25,SSE,162,4.0,8.0,74,0.00,,---,0.00,VWS V14.01,2013-01-07 07:36:00,
2013-01-07 01:41:00,29.1,21.9,30.25,SSW,203,8.0,8.0,74,0.00,,---,0.00,VWS V14.01,2013-01-07 07:41:00,
2013-01-07 01:46:00,29.4,22.1,30.25,South,180,2.0,10.0,74,0.00,,---,0.00,VWS V14.01,2013-01-07 07:46:00,
2013-01-07 01:51:00,29.7,22.4,30.25,South,171,1.0,7.0,74,0.00,,---,0.00,VWS V14.01,2013-01-07 07:51:00,
2013-01-07 01:56:00,29.7,22.1,30.25,South,169,5.0,7.0,73,0.00,,---,0.00,VWS V14.01,2013-01-07 07:56:00,
2013-01-07 02:01:00,29.6,22.0,30.25,South,169,4.0,6.0,73,0.00,,---,0.00,VWS V14.01,2013-01-07 08:01:00,
2013-01-07 02:11:00,29.4,22.1,30.25,SSE,147,6.0,7.0,74,0.00,,---,0.00,VWS V14.01,2013-01-07 08:11:00,
2013-01-07 02:16:00,29.3,22.1,30.25,South,174,4.0,7.0,74,0.00,,---,0.00,VWS V14.01,2013-01-07 08:16:00,
2013-01-07 02:21:00,29.4,22.1,30.25,South,171,2.0,6.0,74,0.00,,---,0.00,VWS V14.01,2013-01-07 08:21:00,
2013-01-07 02:31:00,29.9,22.3,30.25,South,182,3.0,6.0,73,0.00,,---,0.00,VWS V14.01,2013-01-07 08:31:00,
2013-01-07 02:36:00,29.9,22.3,30.25,South,179,2.0,7.0,73,0.00,,---,0.00,VWS V14.01,2013-01-07 08:36:00,
2013-01-07 02:41:00,29.7,22.1,30.25,South,179,4.0,5.0,73,0.00,,---,0.00,VWS V14.01,2013-01-07 08:41:00,
2013-01-07 02:46:00,29.3,22.1,30.25,South,176,0.0,5.0,74,0.00,,---,0.00,VWS V14.01,2013-01-07 08:46:00,
2013-01-07 02:51:00,29.0,21.8,30.25,South,177,4.0,6.0,74,0.00,,---,0.00,VWS V14.01,2013-01-07 08:51:00,
2013-01-07 02:56:00,28.8,21.6,30.25,South,177,4.0,6.0,74,0.00,,---,0.00,VWS V14.01,2013-01-07 08:56:00,
2013-01-07 03:01:00,28.5,21.6,30.25,SSE,166,2.0,7.0,75,0.00,,---,0.00,VWS V14.01,2013-01-07 09:01:00,
2013-01-07 03:06:00,28.5,21.9,30.25,SSE,163,4.0,8.0,76,0.00,,---,0.00,VWS V14.01,2013-01-07 09:06:00,
2013-01-07 03:11:00,28.6,22.0,30.25,South,169,4.0,9.0,76,0.00,,---,0.00,VWS V14.01,2013-01-07 09:11:00,
2013-01-07 03:16:00,28.8,21.9,30.24,SSE,155,5.0,7.0,75,0.00,,---,0.00,VWS V14.01,2013-01-07 09:16:00,
2013-01-07 03:21:00,29.0,22.1,30.24,SSE,157,7.0,8.0,75,0.00,,---,0.00,VWS V14.01,2013-01-07 09:21:00,
2013-01-07 03:26:00,29.3,22.1,30.24,SSE,167,1.0,7.0,74,0.00,,---,0.00,VWS V14.01,2013-01-07 09:26:00,
2013-01-07 03:31:00,29.6,22.4,30.24,SSE,165,6.0,9.0,74,0.00,,---,0.00,VWS V14.01,2013-01-07 09:31:00,
2013-01-07 03:36:00,29.8,22.2,30.24,SSE,163,6.0,9.0,73,0.00,,---,0.00,VWS V14.01,2013-01-07 09:36:00,
2013-01-07 03:41:00,30.0,22.4,30.23,SSE,160,1.0,7.0,73,0.00,,---,0.00,VWS V14.01,2013-01-07 09:41:00,
2013-01-07 03:46:00,29.9,22.0,30.23,SSE,159,4.0,6.0,72,0.00,,---,0.00,VWS V14.01,2013-01-07 09:46:00,
2013-01-07 03:51:00,29.8,21.9,30.23,SSE,159,7.0,7.0,72,0.00,,---,0.00,VWS V14.01,2013-01-07 09:51:00,
2013-01-07 03:56:00,29.8,22.2,30.23,SSE,154,6.0,7.0,73,0.00,,---,0.00,VWS V14.01,2013-01-07 09:56:00,
2013-01-07 04:01:00,29.8,21.9,30.23,SSE,155,2.0,9.0,72,0.00,,---,0.00,VWS V14.01,2013-01-07 10:01:00,
2013-01-07 04:06:00,29.8,21.9,30.23,SSE,155,1.0,8.0,72,0.00,,---,0.00,VWS V14.01,2013-01-07 10:06:00,
2013-01-07 04:11:00,29.6,22.0,30.22,SSE,150,1.0,6.0,73,0.00,,---,0.00,VWS V14.01,2013-01-07 10:11:00,
2013-01-07 04:16:00,29.2,21.6,30.22,SSE,154,1.0,5.0,73,0.00,,---,0.00,VWS V14.01,2013-01-07 10:16:00,
2013-01-07 04:21:00,28.8,21.6,30.22,SSE,154,1.0,6.0,74,0.00,,---,0.00,VWS V14.01,2013-01-07 10:21:00,
2013-01-07 04:26:00,28.5,21.6,30.22,SSE,158,4.0,6.0,75,0.00,,---,0.00,VWS V14.01,2013-01-07 10:26:00,
2013-01-07 04:31:00,28.3,21.4,30.22,SSE,157,4.0,6.0,75,0.00,,---,0.00,VWS V14.01,2013-01-07 10:31:00,
2013-01-07 04:36:00,28.3,21.7,30.22,SSE,155,1.0,7.0,76,0.00,,---,0.00,VWS V14.01,2013-01-07 10:36:00,
2013-01-07 04:46:00,28.5,21.6,30.22,SSE,155,2.0,5.0,75,0.00,,---,0.00,VWS V14.01,2013-01-07 10:46:00,
2013-01-07 04:51:00,28.4,21.5,30.22,SSE,155,2.0,5.0,75,0.00,,---,0.00,VWS V14.01,2013-01-07 10:51:00,
2013-01-07 04:56:00,28.1,21.2,30.22,SSE,155,1.0,5.0,75,0.00,,---,0.00,VWS V14.01,2013-01-07 10:56:00,
2013-01-07 05:06:00,28.2,21.6,30.21,SSE,155,1.0,5.0,76,0.00,,---,0.00,VWS V14.01,2013-01-07 11:06:00,
2013-01-07 05:16:00,28.7,21.8,30.21,SSE,155,1.0,5.0,75,0.00,,---,0.00,VWS V14.01,2013-01-07 11:16:00,
2013-01-07 05:26:00,28.7,21.8,30.21,SSE,155,2.0,4.0,75,0.00,,---,0.00,VWS V14.01,2013-01-07 11:26:00,
2013-01-07 05:31:00,28.7,21.8,30.21,SSE,155,1.0,5.0,75,0.00,,---,0.00,VWS V14.01,2013-01-07 11:31:00,
2013-01-07 05:36:00,28.5,21.6,30.21,SSE,155,0.0,2.0,75,0.00,,---,0.00,VWS V14.01,2013-01-07 11:36:00,
2013-01-07 05:41:00,28.4,21.5,30.21,SSE,155,0.0,5.0,75,0.00,,---,0.00,VWS V14.01,2013-01-07 11:41:00,
2013-01-07 05:46:00,28.2,21.3,30.21,SSE,155,4.0,4.0,75,0.00,,---,0.00,VWS V14.01,2013-01-07 11:46:00,
2013-01-07 05:51:00,28.0,21.1,30.21,SSE,155,1.0,5.0,75,0.00,,---,0.00,VWS V14.01,2013-01-07 11:51:00,
2013-01-07 05:56:00,27.7,20.8,30.20,SSE,155,1.0,4.0,75,0.00,,---,0.00,VWS V14.01,2013-01-07 11:56:00,
2013-01-07 06:01:00,27.5,20.6,30.21,SSE,155,1.0,4.0,75,0.00,,---,0.00,VWS V14.01,2013-01-07 12:01:00,
2013-01-07 06:06:00,27.3,20.8,30.21,SSE,155,1.0,5.0,76,0.00,,---,0.00,VWS V14.01,2013-01-07 12:06:00,
2013-01-07 06:11:00,27.2,20.6,30.21,SSE,155,5.0,5.0,76,0.00,,---,0.00,VWS V14.01,2013-01-07 12:11:00,
2013-01-07 06:16:00,27.2,20.6,30.21,SSE,155,2.0,5.0,76,0.00,,---,0.00,VWS V14.01,2013-01-07 12:16:00,
2013-01-07 06:21:00,27.2,20.6,30.21,SSE,155,2.0,5.0,76,0.00,,---,0.00,VWS V14.01,2013-01-07 12:21:00,
2013-01-07 06:26:00,27.3,20.8,30.21,SSE,155,2.0,4.0,76,0.00,,---,0.00,VWS V14.01,2013-01-07 12:26:00,
2013-01-07 06:36:00,27.4,20.8,30.21,SSE,155,1.0,4.0,76,0.00,,---,0.00,VWS V14.01,2013-01-07 12:36:00,
2013-01-07 06:41:00,27.4,20.8,30.21,SSE,155,0.0,1.0,76,0.00,,---,0.00,VWS V14.01,2013-01-07 12:41:00,
2013-01-07 06:46:00,27.3,20.8,30.21,SSE,155,0.0,1.0,76,0.00,,---,0.00,VWS V14.01,2013-01-07 12:46:00,
2013-01-07 06:51:00,27.3,21.1,30.21,SSE,155,0.0,2.0,77,0.00,,---,0.00,VWS V14.01,2013-01-07 12:51:00,
2013-01-07 06:56:00,27.3,21.1,30.21,SSE,155,1.0,1.0,77,0.00,,---,0.00,VWS V14.01,2013-01-07 12:56:00,
2013-01-07 07:01:00,27.2,21.0,30.21,SSE,155,1.0,2.0,77,0.00,,---,0.00,VWS V14.01,2013-01-07 13:01:00,
2013-01-07 07:06:00,27.1,20.9,30.21,SSE,155,1.0,2.0,77,0.00,,---,0.00,VWS V14.01,2013-01-07 13:06:00,
2013-01-07 07:16:00,26.9,21.0,30.21,SSE,155,2.0,4.0,78,0.00,,---,0.00,VWS V14.01,2013-01-07 13:16:00,
2013-01-07 07:21:00,27.0,21.1,30.21,SSE,155,2.0,5.0,78,0.00,,---,0.00,VWS V14.01,2013-01-07 13:21:00,
2013-01-07 07:31:00,27.6,21.4,30.21,SSE,155,1.0,4.0,77,0.00,,---,0.00,VWS V14.01,2013-01-07 13:31:00,
2013-01-07 07:36:00,27.8,21.2,30.21,SSE,155,4.0,6.0,76,0.00,,---,0.00,VWS V14.01,2013-01-07 13:36:00,
2013-01-07 07:41:00,27.9,21.3,30.21,SSE,155,0.0,6.0,76,0.00,,---,0.00,VWS V14.01,2013-01-07 13:41:00,
2013-01-07 07:46:00,28.0,21.4,30.20,SSE,154,1.0,8.0,76,0.00,,---,0.00,VWS V14.01,2013-01-07 13:46:00,
2013-01-07 07:51:00,28.2,21.6,30.20,SSE,151,1.0,5.0,76,0.00,,---,0.00,VWS V14.01,2013-01-07 13:51:00,
2013-01-07 07:56:00,28.3,21.7,30.20,SSE,148,4.0,5.0,76,0.00,,---,0.00,VWS V14.01,2013-01-07 13:56:00,
2013-01-07 08:01:00,28.4,21.8,30.21,SE,144,2.0,6.0,76,0.00,,---,0.00,VWS V14.01,2013-01-07 14:01:00,
2013-01-07 08:20:00,29.5,22.9,30.20,SSE,158,5.0,9.0,76,0.00,,---,0.00,VWS V14.01,2013-01-07 14:20:00,
2013-01-07 08:31:00,30.2,23.2,30.20,SSE,159,4.0,5.0,75,0.00,,---,0.00,VWS V14.01,2013-01-07 14:31:00,
2013-01-07 08:36:00,30.6,23.6,30.19,SSE,153,10.0,10.0,75,0.00,,---,0.00,VWS V14.01,2013-01-07 14:36:00,
2013-01-07 08:41:00,31.0,23.7,30.18,SSE,167,7.0,13.0,74,0.00,,---,0.00,VWS V14.01,2013-01-07 14:41:00,
2013-01-07 08:51:00,32.0,24.3,30.18,SSE,168,9.0,13.0,73,0.00,,---,0.00,VWS V14.01,2013-01-07 14:51:00,
2013-01-07 08:56:00,32.5,24.5,30.18,South,172,11.0,12.0,72,0.00,,---,0.00,VWS V14.01,2013-01-07 14:56:00,
2013-01-07 09:01:00,32.9,24.5,30.18,South,170,1.0,12.0,71,0.00,,---,0.00,VWS V14.01,2013-01-07 15:01:00,
2013-01-07 09:06:00,33.3,24.9,30.19,SE,135,5.0,10.0,71,0.00,,---,0.00,VWS V14.01,2013-01-07 15:06:00,
2013-01-07 09:11:00,33.6,25.2,30.19,SSE,161,5.0,11.0,71,0.00,,---,0.00,VWS V14.01,2013-01-07 15:11:00,
2013-01-07 09:16:00,34.1,25.4,30.19,South,171,5.0,9.0,70,0.00,,---,0.00,VWS V14.01,2013-01-07 15:16:00,
2013-01-07 09:21:00,34.4,25.6,30.19,South,170,2.0,9.0,70,0.00,,---,0.00,VWS V14.01,2013-01-07 15:21:00,
2013-01-07 09:31:00,35.4,25.9,30.19,South,174,4.0,10.0,68,0.00,,---,0.00,VWS V14.01,2013-01-07 15:31:00,
2013-01-07 09:36:00,36.5,25.9,30.19,SSE,150,2.0,10.0,65,0.00,,---,0.00,VWS V14.01,2013-01-07 15:36:00,
2013-01-07 09:41:00,37.5,26.1,30.20,South,184,4.0,10.0,63,0.00,,---,0.00,VWS V14.01,2013-01-07 15:41:00,
2013-01-07 09:46:00,38.2,26.3,30.20,SSW,198,6.0,10.0,62,0.00,,---,0.00,VWS V14.01,2013-01-07 15:46:00,
2013-01-07 09:51:00,39.0,26.3,30.20,South,171,10.0,11.0,60,0.00,,---,0.00,VWS V14.01,2013-01-07 15:51:00,
2013-01-07 09:56:00,39.5,26.4,30.20,SSW,201,6.0,11.0,59,0.00,,---,0.00,VWS V14.01,2013-01-07 15:56:00,
2013-01-07 10:06:00,40.2,25.8,30.19,SSW,203,6.0,18.0,56,0.00,,---,0.00,VWS V14.01,2013-01-07 16:06:00,
2013-01-07 10:11:00,40.3,25.9,30.19,SSW,205,14.0,17.0,56,0.00,,---,0.00,VWS V14.01,2013-01-07 16:11:00,
2013-01-07 10:16:00,40.6,26.1,30.19,South,187,8.0,18.0,56,0.00,,---,0.00,VWS V14.01,2013-01-07 16:16:00,
2013-01-07 10:21:00,41.0,25.6,30.19,South,190,9.0,19.0,54,0.00,,---,0.00,VWS V14.01,2013-01-07 16:21:00,
2013-01-07 10:26:00,41.3,25.9,30.19,SW,214,8.0,15.0,54,0.00,,---,0.00,VWS V14.01,2013-01-07 16:26:00,
2013-01-07 10:36:00,42.2,26.3,30.18,South,177,8.0,17.0,53,0.00,,---,0.00,VWS V14.01,2013-01-07 16:36:00,
2013-01-07 10:41:00,42.4,26.5,30.18,SSE,167,9.0,18.0,53,0.00,,---,0.00,VWS V14.01,2013-01-07 16:41:00,
2013-01-07 10:46:00,42.3,25.5,30.18,South,187,9.0,16.0,51,0.00,,---,0.00,VWS V14.01,2013-01-07 16:46:00,
2013-01-07 10:51:00,42.3,25.9,30.18,SSW,200,11.0,14.0,52,0.00,,---,0.00,VWS V14.01,2013-01-07 16:51:00,
2013-01-07 10:56:00,42.2,25.4,30.17,SSE,150,10.0,19.0,51,0.00,,---,0.00,VWS V14.01,2013-01-07 16:56:00,
2013-01-07 11:01:00,42.4,25.6,30.17,South,188,9.0,19.0,51,0.00,,---,0.00,VWS V14.01,2013-01-07 17:01:00,
2013-01-07 11:06:00,42.6,26.2,30.17,South,188,12.0,18.0,52,0.00,,---,0.00,VWS V14.01,2013-01-07 17:06:00,
2013-01-07 11:11:00,42.7,25.9,30.17,South,189,10.0,19.0,51,0.00,,---,0.00,VWS V14.01,2013-01-07 17:11:00,
2013-01-07 11:16:00,42.9,26.5,30.16,South,187,10.0,17.0,52,0.00,,---,0.00,VWS V14.01,2013-01-07 17:16:00,
2013-01-07 11:21:00,43.4,27.0,30.16,SSW,198,6.0,15.0,52,0.00,,---,0.00,VWS V14.01,2013-01-07 17:21:00,
2013-01-07 11:26:00,43.8,26.4,30.15,South,182,6.0,14.0,50,0.00,,---,0.00,VWS V14.01,2013-01-07 17:26:00,
2013-01-07 11:31:00,43.7,26.3,30.15,South,176,7.0,14.0,50,0.00,,---,0.00,VWS V14.01,2013-01-07 17:31:00,
2013-01-07 11:36:00,43.9,26.5,30.15,SSW,192,8.0,14.0,50,0.00,,---,0.00,VWS V14.01,2013-01-07 17:36:00,
2013-01-07 11:41:00,44.6,26.6,30.14,SSE,163,8.0,14.0,49,0.00,,---,0.00,VWS V14.01,2013-01-07 17:41:00,
2013-01-07 11:51:00,45.1,26.1,30.14,SW,219,8.0,22.0,47,0.00,,---,0.00,VWS V14.01,2013-01-07 17:51:00,
2013-01-07 11:56:00,45.0,26.5,30.14,South,184,13.0,18.0,48,0.00,,---,0.00,VWS V14.01,2013-01-07 17:56:00,
2013-01-07 12:01:00,45.0,27.0,30.13,SSW,192,6.0,17.0,49,0.00,,---,0.00,VWS V14.01,2013-01-07 18:01:00,
2013-01-07 12:06:00,45.0,26.5,30.13,South,180,5.0,13.0,48,0.00,,---,0.00,VWS V14.01,2013-01-07 18:06:00,
2013-01-07 12:11:00,44.9,26.9,30.12,SSW,195,10.0,13.0,49,0.00,,---,0.00,VWS V14.01,2013-01-07 18:11:00,
2013-01-07 12:16:00,44.8,26.8,30.11,South,188,11.0,15.0,49,0.00,,---,0.00,VWS V14.01,2013-01-07 18:16:00,
2013-01-07 12:21:00,44.9,27.4,30.12,SSW,202,6.0,14.0,50,0.00,,---,0.00,VWS V14.01,2013-01-07 18:21:00,
2013-01-07 12:26:00,45.2,27.2,30.11,South,182,13.0,14.0,49,0.00,,---,0.00,VWS V14.01,2013-01-07 18:26:00,
2013-01-07 12:31:00,45.4,27.4,30.10,South,178,10.0,14.0,49,0.00,,---,0.00,VWS V14.01,2013-01-07 18:31:00,
2013-01-07 12:36:00,45.5,27.0,30.10,South,184,11.0,18.0,48,0.00,,---,0.00,VWS V14.01,2013-01-07 18:36:00,
2013-01-07 12:41:00,45.5,27.5,30.10,South,186,4.0,16.0,49,0.00,,---,0.00,VWS V14.01,2013-01-07 18:41:00,
2013-01-07 12:51:00,46.2,27.6,30.10,SSE,150,12.0,16.0,48,0.00,,---,0.00,VWS V14.01,2013-01-07 18:51:00,
2013-01-07 12:56:00,46.3,27.7,30.09,SSW,196,6.0,14.0,48,0.00,,---,0.00,VWS V14.01,2013-01-07 18:56:00,
2013-01-07 13:01:00,46.2,28.1,30.09,SSE,166,6.0,10.0,49,0.00,,---,0.00,VWS V14.01,2013-01-07 19:01:00,
2013-01-07 13:06:00,46.5,27.4,30.09,SSW,195,3.0,16.0,47,0.00,,---,0.00,VWS V14.01,2013-01-07 19:06:00,
2013-01-07 13:11:00,46.8,27.6,30.09,SSW,209,11.0,16.0,47,0.00,,---,0.00,VWS V14.01,2013-01-07 19:11:00,
2013-01-07 13:16:00,46.9,27.7,30.08,SSE,153,9.0,15.0,47,0.00,,---,0.00,VWS V14.01,2013-01-07 19:16:00,
2013-01-07 13:26:00,47.0,27.3,30.08,SW,219,7.0,18.0,46,0.00,,---,0.00,VWS V14.01,2013-01-07 19:26:00,
2013-01-07 13:31:00,46.9,27.2,30.08,South,182,11.0,18.0,46,0.00,,---,0.00,VWS V14.01,2013-01-07 19:31:00,
2013-01-07 13:36:00,46.9,27.2,30.08,South,190,10.0,18.0,46,0.00,,---,0.00,VWS V14.01,2013-01-07 19:36:00,
2013-01-07 13:41:00,46.7,27.6,30.08,SSW,209,4.0,15.0,47,0.00,,---,0.00,VWS V14.01,2013-01-07 19:41:00,
2013-01-07 13:46:00,46.8,27.6,30.08,South,176,8.0,19.0,47,0.00,,---,0.00,VWS V14.01,2013-01-07 19:46:00,
2013-01-07 13:51:00,47.1,28.4,30.07,South,183,13.0,15.0,48,0.00,,---,0.00,VWS V14.01,2013-01-07 19:51:00,
2013-01-07 13:56:00,47.4,27.7,30.07,South,175,5.0,15.0,46,0.00,,---,0.00,VWS V14.01,2013-01-07 19:56:00,
2013-01-07 14:01:00,47.2,27.5,30.07,South,190,6.0,19.0,46,0.00,,---,0.00,VWS V14.01,2013-01-07 20:01:00,
2013-01-07 14:06:00,47.1,27.4,30.06,South,190,8.0,14.0,46,0.00,,---,0.00,VWS V14.01,2013-01-07 20:06:00,
2013-01-07 14:11:00,47.1,27.9,30.06,SSW,196,3.0,20.0,47,0.00,,---,0.00,VWS V14.01,2013-01-07 20:11:00,
2013-01-07 14:16:00,47.1,27.4,30.06,South,188,7.0,17.0,46,0.00,,---,0.00,VWS V14.01,2013-01-07 20:16:00,
2013-01-07 14:21:00,47.2,27.5,30.07,SSW,200,7.0,17.0,46,0.00,,---,0.00,VWS V14.01,2013-01-07 20:21:00,
2013-01-07 14:26:00,47.5,27.8,30.07,SSW,192,8.0,18.0,46,0.00,,---,0.00,VWS V14.01,2013-01-07 20:26:00,
2013-01-07 14:36:00,47.6,27.9,30.07,South,180,6.0,18.0,46,0.00,,---,0.00,VWS V14.01,2013-01-07 20:36:00,
2013-01-07 14:41:00,47.7,28.0,30.07,South,190,17.0,20.0,46,0.00,,---,0.00,VWS V14.01,2013-01-07 20:41:00,
2013-01-07 14:46:00,47.3,27.0,30.07,SSW,203,15.0,20.0,45,0.00,,---,0.00,VWS V14.01,2013-01-07 20:46:00,
2013-01-07 14:51:00,47.1,27.4,30.07,SSW,205,6.0,20.0,46,0.00,,---,0.00,VWS V14.01,2013-01-07 20:51:00,
2013-01-07 14:56:00,46.9,27.7,30.07,South,188,9.0,14.0,47,0.00,,---,0.00,VWS V14.01,2013-01-07 20:56:00,
2013-01-07 15:01:00,46.7,27.6,30.07,South,177,6.0,15.0,47,0.00,,---,0.00,VWS V14.01,2013-01-07 21:01:00,
2013-01-07 15:06:00,46.7,28.1,30.07,South,174,5.0,11.0,48,0.00,,---,0.00,VWS V14.01,2013-01-07 21:06:00,
2013-01-07 15:11:00,46.5,27.9,30.07,South,180,10.0,14.0,48,0.00,,---,0.00,VWS V14.01,2013-01-07 21:11:00,
2013-01-07 15:16:00,46.3,28.2,30.07,South,171,9.0,12.0,49,0.00,,---,0.00,VWS V14.01,2013-01-07 21:16:00,
2013-01-07 15:21:00,46.1,28.0,30.07,South,169,12.0,13.0,49,0.00,,---,0.00,VWS V14.01,2013-01-07 21:21:00,
2013-01-07 15:26:00,46.1,28.0,30.07,South,182,5.0,17.0,49,0.00,,---,0.00,VWS V14.01,2013-01-07 21:26:00,
2013-01-07 15:31:00,46.0,27.9,30.06,South,178,9.0,11.0,49,0.00,,---,0.00,VWS V14.01,2013-01-07 21:31:00,
2013-01-07 15:36:00,46.0,28.4,30.06,South,185,5.0,9.0,50,0.00,,---,0.00,VWS V14.01,2013-01-07 21:36:00,
2013-01-07 15:46:00,45.9,28.3,30.06,SSW,209,8.0,11.0,50,0.00,,---,0.00,VWS V14.01,2013-01-07 21:46:00,
2013-01-07 15:51:00,45.8,28.7,30.05,South,180,4.0,10.0,51,0.00,,---,0.00,VWS V14.01,2013-01-07 21:51:00,
2013-01-07 15:56:00,45.7,28.6,30.06,South,171,6.0,13.0,51,0.00,,---,0.00,VWS V14.01,2013-01-07 21:56:00,
2013-01-07 16:01:00,45.8,28.7,30.06,South,189,12.0,15.0,51,0.00,,---,0.00,VWS V14.01,2013-01-07 22:01:00,
2013-01-07 16:06:00,45.8,28.7,30.05,South,184,7.0,15.0,51,0.00,,---,0.00,VWS V14.01,2013-01-07 22:06:00,
2013-01-07 16:11:00,45.6,28.0,30.05,SSW,193,9.0,17.0,50,0.00,,---,0.00,VWS V14.01,2013-01-07 22:11:00,
2013-01-07 16:16:00,45.5,28.4,30.05,South,175,9.0,16.0,51,0.00,,---,0.00,VWS V14.01,2013-01-07 22:16:00,
2013-01-07 16:21:00,45.4,28.4,30.05,South,178,7.0,17.0,51,0.00,,---,0.00,VWS V14.01,2013-01-07 22:21:00,
2013-01-07 16:26:00,45.3,28.2,30.04,South,190,7.0,17.0,51,0.00,,---,0.00,VWS V14.01,2013-01-07 22:26:00,
2013-01-07 16:31:00,45.1,28.1,30.05,SSW,200,5.0,14.0,51,0.00,,---,0.00,VWS V14.01,2013-01-07 22:31:00,
2013-01-07 16:36:00,44.9,28.4,30.05,SSW,193,5.0,19.0,52,0.00,,---,0.00,VWS V14.01,2013-01-07 22:36:00,
2013-01-07 16:41:00,44.6,28.1,30.04,South,174,8.0,11.0,52,0.00,,---,0.00,VWS V14.01,2013-01-07 22:41:00,
2013-01-07 16:46:00,44.3,28.3,30.04,SSW,211,8.0,11.0,53,0.00,,---,0.00,VWS V14.01,2013-01-07 22:46:00,
2013-01-07 16:51:00,44.0,28.0,30.04,South,182,7.0,10.0,53,0.00,,---,0.00,VWS V14.01,2013-01-07 22:51:00,
2013-01-07 16:56:00,43.6,28.1,30.03,South,182,8.0,11.0,54,0.00,,---,0.00,VWS V14.01,2013-01-07 22:56:00,
2013-01-07 17:06:00,43.2,28.1,30.03,South,169,4.0,9.0,55,0.00,,---,0.00,VWS V14.01,2013-01-07 23:06:00,
2013-01-07 17:11:00,43.0,28.0,30.03,South,176,4.0,7.0,55,0.00,,---,0.00,VWS V14.01,2013-01-07 23:11:00,
2013-01-07 17:16:00,42.7,27.7,30.03,South,183,5.0,9.0,55,0.00,,---,0.00,VWS V14.01,2013-01-07 23:16:00,
2013-01-07 17:21:00,42.4,27.8,30.04,SSW,192,3.0,9.0,56,0.00,,---,0.00,VWS V14.01,2013-01-07 23:21:00,
2013-01-07 17:26:00,42.0,27.9,30.04,South,180,4.0,9.0,57,0.00,,---,0.00,VWS V14.01,2013-01-07 23:26:00,
2013-01-07 17:31:00,41.9,27.8,30.04,South,182,1.0,6.0,57,0.00,,---,0.00,VWS V14.01,2013-01-07 23:31:00,
2013-01-07 17:36:00,41.7,27.6,30.05,South,182,1.0,4.0,57,0.00,,---,0.00,VWS V14.01,2013-01-07 23:36:00,
2013-01-07 17:41:00,41.3,27.6,30.04,South,179,0.0,3.0,58,0.00,,---,0.00,VWS V14.01,2013-01-07 23:41:00,
2013-01-07 17:46:00,41.0,27.8,30.05,South,173,1.0,4.0,59,0.00,,---,0.00,VWS V14.01,2013-01-07 23:46:00,
2013-01-07 17:51:00,40.6,27.4,30.04,South,173,1.0,4.0,59,0.00,,---,0.00,VWS V14.01,2013-01-07 23:51:00,
2013-01-07 17:56:00,40.2,27.4,30.04,SSE,154,1.0,5.0,60,0.00,,---,0.00,VWS V14.01,2013-01-07 23:56:00,
2013-01-07 18:01:00,40.0,27.6,30.04,South,175,4.0,6.0,61,0.00,,---,0.00,VWS V14.01,2013-01-08 00:01:00,
2013-01-07 18:06:00,40.0,27.6,30.05,South,181,2.0,5.0,61,0.00,,---,0.00,VWS V14.01,2013-01-08 00:06:00,
2013-01-07 18:11:00,40.3,27.9,30.04,SSW,196,6.0,8.0,61,0.00,,---,0.00,VWS V14.01,2013-01-08 00:11:00,
2013-01-07 18:21:00,40.5,28.1,30.04,South,177,5.0,6.0,61,0.00,,---,0.00,VWS V14.01,2013-01-08 00:21:00,
2013-01-07 18:26:00,40.4,28.0,30.04,South,171,4.0,7.0,61,0.00,,---,0.00,VWS V14.01,2013-01-08 00:26:00,
2013-01-07 18:36:00,40.0,28.0,30.04,South,190,4.0,8.0,62,0.00,,---,0.00,VWS V14.01,2013-01-08 00:36:00,
2013-01-07 18:56:00,40.1,28.1,30.04,SSE,163,2.0,8.0,62,0.00,,---,0.00,VWS V14.01,2013-01-08 00:56:00,
2013-01-07 19:01:00,39.8,27.9,30.04,SSE,168,0.0,6.0,62,0.00,,---,0.00,VWS V14.01,2013-01-08 01:01:00,
2013-01-07 19:06:00,39.6,28.1,30.04,SSE,167,1.0,5.0,63,0.00,,---,0.00,VWS V14.01,2013-01-08 01:06:00,
2013-01-07 19:11:00,39.4,28.2,30.03,SSE,159,4.0,7.0,64,0.00,,---,0.00,VWS V14.01,2013-01-08 01:11:00,
2013-01-07 19:16:00,39.1,28.0,30.03,South,169,6.0,6.0,64,0.00,,---,0.00,VWS V14.01,2013-01-08 01:16:00,
2013-01-07 19:21:00,39.0,28.2,30.03,SSE,165,2.0,10.0,65,0.00,,---,0.00,VWS V14.01,2013-01-08 01:21:00,
2013-01-07 19:26:00,39.1,28.3,30.03,South,180,1.0,7.0,65,0.00,,---,0.00,VWS V14.01,2013-01-08 01:26:00,
2013-01-07 19:31:00,39.3,28.2,30.03,South,178,4.0,8.0,64,0.00,,---,0.00,VWS V14.01,2013-01-08 01:31:00,
2013-01-07 19:36:00,39.8,28.2,30.03,South,172,1.0,8.0,63,0.00,,---,0.00,VWS V14.01,2013-01-08 01:36:00,
2013-01-07 19:41:00,40.1,28.1,30.03,South,172,4.0,7.0,62,0.00,,---,0.00,VWS V14.01,2013-01-08 01:41:00,
2013-01-07 19:46:00,40.2,28.2,30.03,SSW,202,2.0,7.0,62,0.00,,---,0.00,VWS V14.01,2013-01-08 01:46:00,
2013-01-07 19:51:00,40.3,28.3,30.03,South,184,3.0,10.0,62,0.00,,---,0.00,VWS V14.01,2013-01-08 01:51:00,
2013-01-07 19:56:00,40.3,28.3,30.03,South,172,2.0,9.0,62,0.00,,---,0.00,VWS V14.01,2013-01-08 01:56:00,
2013-01-07 20:01:00,40.3,28.3,30.03,South,169,1.0,11.0,62,0.00,,---,0.00,VWS V14.01,2013-01-08 02:01:00,
2013-01-07 20:06:00,40.4,28.0,30.03,South,175,5.0,6.0,61,0.00,,---,0.00,VWS V14.01,2013-01-08 02:06:00,
2013-01-07 20:11:00,40.6,28.2,30.03,South,183,3.0,8.0,61,0.00,,---,0.00,VWS V14.01,2013-01-08 02:11:00,
2013-01-07 20:16:00,40.7,27.9,30.04,South,175,1.0,9.0,60,0.00,,---,0.00,VWS V14.01,2013-01-08 02:16:00,
2013-01-07 20:21:00,41.0,28.2,30.03,South,188,6.0,8.0,60,0.00,,---,0.00,VWS V14.01,2013-01-08 02:21:00,
2013-01-07 20:26:00,41.1,28.3,30.04,SSE,165,6.0,9.0,60,0.00,,---,0.00,VWS V14.01,2013-01-08 02:26:00,
2013-01-07 20:31:00,41.1,28.3,30.04,South,171,6.0,8.0,60,0.00,,---,0.00,VWS V14.01,2013-01-08 02:31:00,
2013-01-07 20:36:00,41.1,28.3,30.04,SSE,167,2.0,10.0,60,0.00,,---,0.00,VWS V14.01,2013-01-08 02:36:00,
2013-01-07 20:41:00,41.2,28.0,30.04,South,180,6.0,12.0,59,0.00,,---,0.00,VWS V14.01,2013-01-08 02:41:00,
2013-01-07 20:46:00,41.3,28.1,30.03,South,187,5.0,8.0,59,0.00,,---,0.00,VWS V14.01,2013-01-08 02:46:00,
2013-01-07 20:51:00,41.3,28.5,30.04,South,180,4.0,8.0,60,0.00,,---,0.00,VWS V14.01,2013-01-08 02:51:00,
2013-01-07 20:56:00,41.2,28.4,30.04,South,186,3.0,7.0,60,0.00,,---,0.00,VWS V14.01,2013-01-08 02:56:00,
2013-01-07 21:01:00,41.2,28.4,30.04,South,182,3.0,7.0,60,0.00,,---,0.00,VWS V14.01,2013-01-08 03:01:00,
2013-01-07 21:06:00,41.1,28.3,30.04,South,178,5.0,9.0,60,0.00,,---,0.00,VWS V14.01,2013-01-08 03:06:00,
2013-01-07 21:11:00,41.0,28.2,30.04,South,178,4.0,8.0,60,0.00,,---,0.00,VWS V14.01,2013-01-08 03:11:00,
2013-01-07 21:16:00,40.9,28.1,30.04,South,186,2.0,7.0,60,0.00,,---,0.00,VWS V14.01,2013-01-08 03:16:00,
2013-01-07 21:21:00,40.9,28.1,30.04,South,182,2.0,7.0,60,0.00,,---,0.00,VWS V14.01,2013-01-08 03:21:00,
2013-01-07 21:26:00,40.9,28.1,30.04,South,188,3.0,7.0,60,0.00,,---,0.00,VWS V14.01,2013-01-08 03:26:00,
2013-01-07 21:31:00,40.8,28.0,30.05,South,188,6.0,8.0,60,0.00,,---,0.00,VWS V14.01,2013-01-08 03:31:00,
2013-01-07 21:36:00,40.7,28.3,30.05,South,186,6.0,7.0,61,0.00,,---,0.00,VWS V14.01,2013-01-08 03:36:00,
2013-01-07 21:41:00,40.7,28.3,30.05,South,183,5.0,10.0,61,0.00,,---,0.00,VWS V14.01,2013-01-08 03:41:00,
2013-01-07 21:46:00,40.7,28.3,30.04,South,176,4.0,8.0,61,0.00,,---,0.00,VWS V14.01,2013-01-08 03:46:00,
2013-01-07 21:51:00,40.6,28.2,30.04,South,183,2.0,10.0,61,0.00,,---,0.00,VWS V14.01,2013-01-08 03:51:00,
2013-01-07 21:56:00,40.4,28.4,30.04,SSE,167,5.0,8.0,62,0.00,,---,0.00,VWS V14.01,2013-01-08 03:56:00,
2013-01-07 22:01:00,40.2,28.2,30.03,SSE,165,4.0,9.0,62,0.00,,---,0.00,VWS V14.01,2013-01-08 04:01:00,
2013-01-07 22:06:00,40.1,28.5,30.03,SSE,154,4.0,9.0,63,0.00,,---,0.00,VWS V14.01,2013-01-08 04:06:00,
2013-01-07 22:11:00,40.0,28.4,30.03,South,175,5.0,9.0,63,0.00,,---,0.00,VWS V14.01,2013-01-08 04:11:00,
2013-01-07 22:16:00,40.0,28.4,30.03,SSE,162,4.0,7.0,63,0.00,,---,0.00,VWS V14.01,2013-01-08 04:16:00,
2013-01-07 22:21:00,39.8,28.2,30.03,South,180,6.0,9.0,63,0.00,,---,0.00,VWS V14.01,2013-01-08 04:21:00,
2013-01-07 22:26:00,39.9,28.7,30.03,South,173,7.0,10.0,64,0.00,,---,0.00,VWS V14.01,2013-01-08 04:26:00,
2013-01-07 22:31:00,39.8,28.6,30.03,South,176,4.0,10.0,64,0.00,,---,0.00,VWS V14.01,2013-01-08 04:31:00,
2013-01-07 22:36:00,39.7,28.5,30.03,SSE,167,6.0,8.0,64,0.00,,---,0.00,VWS V14.01,2013-01-08 04:36:00,
2013-01-07 22:46:00,39.7,28.9,30.02,South,175,5.0,8.0,65,0.00,,---,0.00,VWS V14.01,2013-01-08 04:46:00,
2013-01-07 22:51:00,39.8,29.0,30.02,SSE,165,5.0,8.0,65,0.00,,---,0.00,VWS V14.01,2013-01-08 04:51:00,
2013-01-07 22:56:00,39.8,29.0,30.02,South,180,3.0,8.0,65,0.00,,---,0.00,VWS V14.01,2013-01-08 04:56:00,
2013-01-07 23:06:00,39.8,29.4,30.02,South,179,4.0,10.0,66,0.00,,---,0.00,VWS V14.01,2013-01-08 05:06:00,
2013-01-07 23:11:00,39.7,28.9,30.02,South,180,6.0,8.0,65,0.00,,---,0.00,VWS V14.01,2013-01-08 05:11:00,
2013-01-07 23:16:00,39.8,29.4,30.02,South,179,5.0,9.0,66,0.00,,---,0.00,VWS V14.01,2013-01-08 05:16:00,
2013-01-07 23:21:00,39.7,29.3,30.02,SSE,147,6.0,11.0,66,0.00,,---,0.00,VWS V14.01,2013-01-08 05:21:00,
2013-01-07 23:26:00,39.6,29.2,30.02,South,189,3.0,9.0,66,0.00,,---,0.00,VWS V14.01,2013-01-08 05:26:00,
2013-01-07 23:31:00,39.5,29.1,30.02,SSW,201,6.0,10.0,66,0.00,,---,0.00,VWS V14.01,2013-01-08 05:31:00,
2013-01-07 23:36:00,39.6,29.6,30.02,SSE,165,4.0,12.0,67,0.00,,---,0.00,VWS V14.01,2013-01-08 05:36:00,
2013-01-07 23:41:00,39.5,29.1,30.02,South,170,4.0,10.0,66,0.00,,---,0.00,VWS V14.01,2013-01-08 05:41:00,
2013-01-07 23:46:00,39.6,29.6,30.02,South,182,8.0,10.0,67,0.00,,---,0.00,VWS V14.01,2013-01-08 05:46:00,
2013-01-07 23:51:00,39.6,29.6,30.02,South,173,6.0,10.0,67,0.00,,---,0.00,VWS V14.01,2013-01-08 05:51:00,
2013-01-07 23:56:00,39.6,29.6,30.02,South,184,2.0,9.0,67,0.00,,---,0.00,VWS V14.01,2013-01-08 05:56:00,